Temp
1 0 0 -0 0 0 1 1 3 4 4 4 4 3 3 3 5 7 7 8 9 10
-1 -0 -1 -2 -2 -1 -1 -1 -1 -1 -1 -0 1 1 1 1 1 2 5 6 8 9
-2 -3 -4 -5 -5 -4 -4 -3 -3 -2 -1 -1 -1 -1 -1 -0 0 1 2 2 4 6
-3 -4 -4 -4 -4 -4 -4 -4 -4 -3 -3 -2 -1 -1 -1 -1 -0 -1 0 2 3 4
-3 -3 -4 -5 -5 -5 -5 -5 -5 -5 -6 -5 -5 -4 -3 -3 -1 -1 -0 1 2 2
-3 -4 -5 -5 -5 -5 -6 -6 -6 -6 -7 -6 -6 -6 -4 -3 -2 -1 -0 -0 0 2
-4 -5 -5 -5 -5 -5 -5 -6 -7 -7 -7 -8 -7 -7 -6 -5 -4 -3 -2 1 1 1
-5 -5 -5 -5 -4 -4 -5 -5 -6 -6 -7 -8 -8 -7 -6 -6 -6 -5 -3 -1 -2 -1
-4 -4 -4 -4 -4 -4 -4 -5 -5 -5 -6 -7 -7 -6 -6 -6 -7 -6 -5 -4 -2 -1
-4 -4 -4 -4 -4 -3 -4 -5 -5 -5 -6 -5 -6 -6 -5 -6 -7 -7 -7 -6 -4 -2
-4 -4 -4 -4 -4 -4 -4 -5 -5 -5 -6 -5 -5 -5 -5 -5 -5 -7 -6 -6 -5 -4
-5 -5 -5 -5 -5 -5 -5 -5 -6 -6 -5 -5 -5 -6 -5 -4 -5 -5 -6 -6 -5 -4
-6 -6 -6 -7 -6 -6 -6 -6 -6 -6 -6 -6 -6 -6 -6 -5 -4 -4 -5 -5 -5 -6
-6 -6 -6 -7 -7 -6 -5 -5 -5 -5 -6 -7 -7 -7 -7 -7 -6 -6 -6 -6 -6 -7
Height
1465 1461 1456 1453 1449 1445 1441 1438 1434 1429 1427 1427 1425 1423 1421 1420 1421 1421 1420 1420 1420 1421
1462 1458 1454 1451 1446 1441 1437 1432 1427 1425 1422 1418 1415 1414 1413 1412 1411 1411 1409 1408 1409 1410
1461 1456 1452 1447 1442 1437 1432 1428 1423 1421 1417 1413 1411 1409 1407 1403 1400 1400 1401 1400 1399 1399
1461 1456 1450 1445 1439 1435 1430 1425 1421 1417 1413 1409 1405 1403 1398 1395 1392 1391 1390 1391 1391 1390
1462 1456 1450 1445 1439 1435 1429 1423 1419 1416 1413 1408 1403 1397 1392 1388 1385 1382 1380 1380 1379 1380
1463 1457 1452 1446 1440 1436 1430 1424 1420 1417 1412 1405 1399 1393 1386 1381 1376 1373 1369 1367 1368 1370
1464 1460 1455 1450 1445 1439 1433 1428 1423 1418 1412 1405 1399 1392 1384 1378 1371 1365 1360 1357 1357 1360
1467 1463 1458 1453 1448 1442 1437 1431 1426 1419 1414 1408 1401 1393 1384 1376 1368 1361 1355 1350 1350 1351
1470 1466 1460 1454 1449 1445 1441 1437 1432 1425 1418 1410 1404 1396 1387 1378 1369 1362 1355 1350 1348 1346
1471 1466 1460 1456 1453 1449 1445 1441 1435 1428 1422 1413 1407 1401 1392 1383 1375 1367 1360 1354 1347 1343
1471 1467 1464 1461 1457 1452 1448 1443 1438 1432 1425 1418 1409 1406 1399 1389 1381 1373 1364 1357 1352 1346
1475 1472 1467 1463 1459 1456 1452 1447 1441 1435 1429 1421 1415 1411 1405 1397 1388 1379 1371 1366 1360 1356
1478 1474 1469 1466 1463 1459 1454 1450 1444 1438 1432 1428 1422 1416 1410 1402 1395 1386 1380 1375 1369 1366
1480 1477 1474 1470 1466 1462 1458 1453 1447 1442 1438 1433 1427 1423 1416 1409 1402 1396 1391 1384 1379 1378
Wind_Speed
23 24 25 25 26 26 26 27 27 27 28 28 28 29 31 33 32 34 35 37 40 42
23 23 22 22 22 23 24 25 26 27 28 28 28 28 29 31 30 30 33 35 36 40
22 21 21 21 22 21 22 23 24 24 24 26 27 28 29 30 28 27 30 31 33 35
22 22 21 20 21 21 20 20 20 21 22 24 26 27 29 30 30 30 30 30 32 34
24 24 23 22 20 19 19 19 20 19 19 21 21 23 26 27 28 32 34 32 33 35
25 26 26 24 23 22 21 21 19 18 21 21 21 23 25 27 28 31 32 34 35 36
20 21 23 23 24 26 26 24 22 23 25 25 24 22 20 17 18 20 25 26 27 30
16 16 17 18 20 24 28 31 31 31 31 30 27 23 19 16 16 14 10 6 12 17
16 17 20 21 21 21 24 27 30 34 37 37 30 22 21 22 29 28 20 13 4 8
16 17 20 22 22 24 28 28 29 31 35 40 40 34 32 33 35 36 36 30 24 15
17 17 18 19 21 23 26 29 31 34 37 37 38 38 38 39 41 43 45 44 38 33
16 17 19 21 22 24 26 29 33 34 36 39 40 41 40 37 40 44 46 46 46 43
15 17 22 24 24 25 27 30 32 35 37 38 40 40 41 41 43 43 42 42 43 43
15 17 20 24 25 27 28 29 32 34 37 38 39 39 39 40 41 41 41 43 43 41
Wind_Direction
331 331 329 327 324 322 318 314 307 300 294 288 284 282 279 276 264 256 254 249 246 245
341 337 335 331 329 328 324 320 316 309 304 298 289 284 281 277 273 263 259 259 251 246
351 349 347 341 338 341 337 333 328 319 310 305 299 290 283 278 275 271 262 261 263 253
5 2 1 355 354 352 348 343 337 330 320 309 303 298 290 282 279 272 266 259 257 260
21 19 15 9 6 3 360 357 351 346 338 328 319 309 300 292 280 275 271 263 256 254
28 26 23 21 20 18 15 14 8 4 1 354 342 328 313 303 295 286 281 275 261 253
30 35 32 31 34 37 36 33 30 26 24 16 4 351 339 330 314 291 282 278 261 254
25 31 38 40 40 44 45 44 42 40 38 30 20 16 13 19 21 1 342 250 243 242
39 41 45 42 36 38 47 48 48 47 45 43 36 31 39 43 49 50 48 57 77 222
34 38 43 46 45 48 51 50 48 48 47 47 44 42 49 54 55 56 56 53 56 63
38 40 48 52 50 49 50 51 51 50 50 49 50 44 42 51 56 56 57 55 54 56
44 47 55 57 55 54 54 52 51 50 49 47 46 42 44 44 49 52 56 56 56 56
48 49 56 58 58 58 57 56 54 51 49 48 44 42 39 39 44 49 52 52 54 56
50 53 56 59 58 58 57 56 54 52 50 47 46 41 40 38 39 42 46 49 48 51